FW0606 Weather Reports


time (UTC)temp
C
wind
direction
speed
KPH
gust
KPH
rain 1hr
cm
rain 24hr
cm
rain mn
cm
humidity
%
barometer
mb
20260509135534 22 0 0.0 0.0 0.00 0.00 0.00 85 1012.3
20260509135034 22 0 0.0 0.0 0.00 0.00 0.00 86 1012.3
20260509134546 22 0 0.0 0.0 0.00 0.00 0.00 87 1012.2
20260509134034 22 0 0.0 0.0 0.00 0.00 0.00 88 1012.2
20260509133535 21 0 0.0 0.0 0.00 0.00 0.00 89 1012.1
20260509133052 21 0 0.0 0.0 0.00 0.00 0.00 89 1012.1
20260509132536 21 0 0.0 0.0 0.00 0.00 0.00 90 1012.1
20260509132034 21 0 0.0 0.0 0.00 0.00 0.00 90 1012.2
20260509131548 21 0 0.0 0.0 0.00 0.00 0.00 90 1012.2
20260509131036 21 0 0.0 0.0 0.00 0.00 0.00 90 1012.1
20260509130536 21 0 0.0 0.0 0.00 0.00 0.00 91 1012.1
20260509130056 20 0 0.0 0.0 0.00 0.00 0.00 90 1012.2
20260509125534 20 0 0.0 0.0 0.00 0.00 0.00 91 1012.1
20260509125036 20 0 0.0 0.0 0.00 0.00 0.00 90 1012.2
20260509124553 20 0 0.0 0.0 0.00 0.00 0.00 90 1012.2
20260509124034 20 0 0.0 0.0 0.00 0.00 0.00 90 1012.1
20260509123536 20 0 0.0 0.0 0.00 0.00 0.00 90 1012.0
20260509123054 20 0 0.0 3.2 0.00 0.00 0.00 90 1012.1
20260509122534 20 0 0.0 3.2 0.00 0.00 0.00 90 1012.1
20260509122034 20 0 0.0 3.2 0.00 0.00 0.00 90 1012.0
20260509121551 20 0 0.0 1.6 0.00 0.00 0.00 90 1012.0
20260509121032 20 0 0.0 0.0 0.00 0.00 0.00 90 1012.0
20260509120534 20 0 0.0 0.0 0.00 0.00 0.00 90 1012.0
20260509120047 20 0 0.0 0.0 0.00 0.00 0.00 90 1011.9
20260509115534 20 0 0.0 0.0 0.00 0.00 0.00 90 1011.9
20260509115034 20 0 0.0 0.0 0.00 0.00 0.00 90 1011.8
20260509114543 20 0 0.0 0.0 0.00 0.00 0.00 90 1011.8
20260509114035 20 0 0.0 0.0 0.00 0.00 0.00 90 1011.8
20260509113535 20 0 0.0 1.6 0.00 0.00 0.00 90 1011.4
20260509113047 20 0 0.0 1.6 0.00 0.00 0.00 89 1011.5
20260509112534 20 0 0.0 1.6 0.00 0.00 0.00 89 1011.5
20260509112032 20 0 0.0 1.6 0.00 0.00 0.00 89 1011.2
20260509111546 20 0 0.0 1.6 0.00 0.00 0.00 89 1011.0
20260509111034 20 0 0.0 0.0 0.00 0.00 0.00 89 1011.1
20260509110535 20 0 0.0 0.0 0.00 0.00 0.00 89 1011.1
20260509110050 20 0 0.0 0.0 0.00 0.00 0.00 89 1010.9
20260509105532 20 0 0.0 0.0 0.00 0.03 0.00 88 1010.9
20260509105035 20 0 0.0 0.0 0.00 0.03 0.00 88 1010.6
20260509104546 20 0 0.0 0.0 0.00 0.03 0.00 88 1010.4
20260509104034 20 0 0.0 0.0 0.00 0.03 0.00 88 1010.1
20260509103534 20 0 0.0 0.0 0.00 0.03 0.00 88 1010.1
20260509103052 20 0 0.0 0.0 0.00 0.03 0.00 88 1010.0
20260509102535 20 0 0.0 0.0 0.00 0.03 0.00 88 1010.0
20260509102035 21 0 0.0 0.0 0.00 0.03 0.00 88 1010.0
20260509101550 21 0 0.0 0.0 0.00 0.03 0.00 88 1009.9
20260509101034 21 0 0.0 0.0 0.00 0.03 0.00 88 1010.0
20260509100534 21 0 0.0 0.0 0.00 0.03 0.00 88 1010.0
20260509100049 21 0 0.0 0.0 0.00 0.03 0.00 88 1010.0
20260509095534 21 0 0.0 0.0 0.00 0.03 0.00 88 1009.8
20260509095031 21 0 0.0 0.0 0.00 0.03 0.00 88 1009.7
20260509094557 21 0 0.0 0.0 0.00 0.03 0.00 87 1009.7
20260509094035 21 0 0.0 0.0 0.00 0.03 0.00 87 1009.7
20260509093535 21 0 0.0 0.0 0.00 0.03 0.00 87 1009.6
20260509093044 21 0 0.0 0.0 0.00 0.03 0.00 87 1009.3
20260509092536 21 0 0.0 0.0 0.00 0.03 0.00 87 1009.3
20260509092034 21 0 0.0 0.0 0.00 0.03 0.00 87 1009.2
20260509091550 21 0 0.0 0.0 0.00 0.03 0.00 86 1009.3
20260509091036 21 0 0.0 0.0 0.00 0.03 0.00 86 1009.5
20260509090535 21 0 0.0 0.0 0.00 0.03 0.00 86 1009.5
20260509090101 21 0 0.0 0.0 0.00 0.03 0.00 86 1009.6
20260509085538 21 0 0.0 0.0 0.00 0.03 0.00 86 1009.3
20260509085037 21 0 0.0 0.0 0.00 0.03 0.00 86 1009.3
20260509084553 21 0 0.0 0.0 0.00 0.03 0.00 86 1009.3
20260509084034 21 0 0.0 0.0 0.00 0.03 0.00 86 1009.1
20260509083531 21 0 0.0 0.0 0.00 0.03 0.00 87 1009.1
20260509083106 21 0 0.0 0.0 0.00 0.03 0.00 87 1008.7
20260509082536 21 0 0.0 0.0 0.00 0.03 0.00 87 1007.9
20260509082035 21 0 0.0 1.6 0.00 0.03 0.00 88 1007.7
20260509081548 21 0 0.0 6.4 0.00 0.03 0.00 88 1007.7
20260509081035 21 0 0.0 6.4 0.00 0.03 0.00 88 1007.8
20260509080535 21 121 0.0 12.9 0.00 0.03 0.00 88 1007.8
20260509080048 21 0 0.0 12.9 0.00 0.03 0.00 88 1008.3
20260509075532 21 0 0.0 3.2 0.00 0.03 0.00 88 1008.5
20260509075035 21 109 0.0 3.2 0.00 0.03 0.00 88 1008.6
20260509074606 21 0 0.0 1.6 0.00 0.03 0.00 88 1009.2
20260509074038 21 0 0.0 0.0 0.00 0.03 0.00 88 1009.4
20260509073536 21 0 0.0 0.0 0.00 0.03 0.00 88 1009.7
20260509073101 21 0 0.0 0.0 0.00 0.03 0.00 88 1009.9
20260509072535 21 0 0.0 0.0 0.00 0.03 0.00 88 1010.4
20260509072035 21 0 0.0 0.0 0.00 0.03 0.00 88 1010.1
20260509071555 20 0 0.0 0.0 0.00 0.03 0.00 88 1010.2
20260509071036 20 0 0.0 0.0 0.00 0.03 0.00 88 1010.4
20260509070535 20 0 0.0 0.0 0.00 0.03 0.00 88 1010.6
20260509070048 20 0 0.0 0.0 0.00 0.03 0.00 88 1010.9
20260509065534 20 0 0.0 0.0 0.00 0.03 0.00 88 1011.1
20260509065034 20 0 0.0 0.0 0.00 0.03 0.00 88 1011.0
20260509064543 20 0 0.0 0.0 0.00 0.03 0.00 87 1011.1
20260509064035 20 0 0.0 0.0 0.00 0.03 0.00 87 1011.3
20260509063535 20 0 0.0 0.0 0.00 0.03 0.00 87 1011.6
20260509063056 20 0 0.0 0.0 0.00 0.03 0.00 87 1011.9
20260509062534 20 0 0.0 0.0 0.00 0.03 0.00 86 1012.0
20260509062034 20 0 0.0 0.0 0.00 0.03 0.00 86 1012.1
20260509061544 20 0 0.0 0.0 0.00 0.03 0.00 86 1012.0
20260509061034 20 0 0.0 0.0 0.00 0.03 0.00 86 1011.9
20260509060535 20 0 0.0 0.0 0.00 0.03 0.00 85 1011.7
20260509060104 20 0 0.0 0.0 0.00 0.03 0.00 85 1011.9
20260509055534 20 0 0.0 0.0 0.00 0.03 0.00 85 1011.7
20260509055034 21 0 0.0 0.0 0.00 0.03 0.00 84 1011.8
20260509054545 21 0 0.0 0.0 0.00 0.03 0.00 84 1011.7
20260509054035 21 0 0.0 0.0 0.00 0.03 0.00 84 1011.7
20260509053536 21 0 0.0 0.0 0.00 0.03 0.00 84 1012.1
20260509053054 21 0 0.0 0.0 0.00 0.03 0.00 83 1011.7
20260509052536 21 0 0.0 0.0 0.00 0.03 0.00 83 1011.9
20260509052034 21 0 0.0 0.0 0.00 0.03 0.00 83 1012.1
20260509051547 21 0 0.0 0.0 0.00 0.03 0.00 83 1012.5
20260509051120 21 0 0.0 0.0 0.00 0.03 0.00 83 1012.7
20260509051034 21 0 0.0 0.0 0.00 0.03 0.00 83 1012.7
20260509050537 21 0 0.0 0.0 0.00 0.03 0.00 83 1012.6
20260509050046 21 0 0.0 0.0 0.00 0.03 0.00 83 1013.1
20260509045531 21 0 0.0 4.8 0.00 0.03 0.03 83 1013.2
20260509045034 21 0 0.0 4.8 0.00 0.03 0.03 83 1013.3
20260509044547 21 322 0.0 1.6 0.00 0.03 0.03 83 1013.3
20260509044035 21 0 0.0 0.0 0.00 0.03 0.03 83 1012.7
20260509043534 21 0 0.0 0.0 0.00 0.03 0.03 82 1011.7
20260509043053 21 0 0.0 0.0 0.00 0.03 0.03 82 1011.6
20260509042535 22 0 0.0 0.0 0.00 0.03 0.03 82 1011.7
20260509042035 22 0 0.0 0.0 0.00 0.03 0.03 82 1011.8
20260509041551 22 0 0.0 0.0 0.00 0.03 0.03 82 1011.8
20260509041035 22 0 0.0 0.0 0.00 0.03 0.03 82 1011.8
20260509040534 22 0 0.0 0.0 0.00 0.03 0.03 82 1011.7
20260509040104 22 0 0.0 0.0 0.00 0.03 0.03 82 1011.4
20260509035534 22 0 0.0 0.0 0.00 0.03 0.03 82 1011.0
20260509035037 22 0 0.0 0.0 0.00 0.03 0.03 82 1010.9
20260509034542 22 0 0.0 0.0 0.00 0.03 0.03 81 1010.6
20260509034034 22 0 0.0 0.0 0.00 0.03 0.03 81 1010.8
20260509033534 22 0 0.0 0.0 0.00 0.03 0.03 81 1010.6
20260509033108 22 0 0.0 0.0 0.00 0.03 0.03 81 1010.6
20260509032534 22 0 0.0 0.0 0.00 0.03 0.03 81 1010.8
20260509032035 22 0 0.0 0.0 0.00 0.03 0.03 81 1011.1
20260509031551 22 0 0.0 0.0 0.00 0.03 0.03 81 1011.5
20260509031035 22 0 0.0 0.0 0.00 0.03 0.03 81 1012.1
20260509030537 22 0 0.0 0.0 0.00 0.03 0.03 81 1012.2
20260509030047 22 0 0.0 0.0 0.00 0.03 0.03 81 1012.0
20260509025535 22 0 0.0 0.0 0.00 0.03 0.03 82 1011.6
20260509025033 22 0 0.0 0.0 0.00 0.03 0.03 82 1011.3
20260509024552 22 0 0.0 0.0 0.00 0.03 0.03 81 1011.1
20260509024034 22 0 0.0 0.0 0.00 0.03 0.03 81 1010.8
20260509023534 22 0 0.0 0.0 0.00 0.03 0.03 81 1010.6
20260509023047 22 0 0.0 0.0 0.00 0.03 0.03 81 1010.5
20260509022534 22 0 0.0 0.0 0.00 0.03 0.03 81 1010.3
20260509022035 22 0 0.0 0.0 0.00 0.03 0.03 81 1010.1
20260509021547 22 0 0.0 0.0 0.00 0.03 0.03 81 1010.0
20260509021034 22 0 0.0 0.0 0.00 0.03 0.03 80 1009.9
20260509020534 22 0 0.0 0.0 0.00 0.03 0.03 80 1009.7
20260509020052 22 0 0.0 0.0 0.00 0.03 0.03 80 1009.5
20260509015535 22 0 0.0 0.0 0.00 0.03 0.03 79 1009.6
20260509015035 22 0 0.0 0.0 0.00 0.03 0.03 79 1009.8
20260509014547 22 0 0.0 0.0 0.00 0.03 0.03 79 1009.8
20260509014034 22 0 0.0 0.0 0.00 0.03 0.03 78 1009.6
20260509013534 22 0 0.0 0.0 0.00 0.03 0.03 77 1009.6
20260509013045 22 0 0.0 1.6 0.00 0.03 0.03 77 1009.6
20260509012537 22 0 0.0 1.6 0.00 0.03 0.03 77 1009.8
20260509012036 22 0 0.0 0.0 0.00 0.03 0.03 76 1009.9
20260509011551 23 0 0.0 8.0 0.00 0.03 0.03 76 1010.1
20260509011035 23 0 0.0 8.0 0.00 0.03 0.03 76 1010.2
20260509010538 23 0 0.0 0.0 0.00 0.03 0.03 75 1010.2
20260509010046 23 0 0.0 0.0 0.00 0.03 0.03 75 1010.1
20260509005535 23 0 0.0 0.0 0.00 0.03 0.03 74 1010.1
20260509005034 23 0 0.0 1.6 0.00 0.03 0.03 74 1010.0
20260509004543 23 0 0.0 1.6 0.00 0.03 0.03 74 1009.9
20260509004036 23 0 0.0 0.0 0.00 0.03 0.03 74 1009.8
20260509003535 23 0 0.0 0.0 0.00 0.03 0.03 73 1009.6
20260509003055 23 0 0.0 0.0 0.00 0.03 0.03 73 1009.6
20260509002536 23 0 0.0 3.2 0.00 0.03 0.03 73 1009.4
20260509002034 24 0 0.0 3.2 0.00 0.03 0.03 72 1009.3
20260509001547 24 0 0.0 8.0 0.00 0.03 0.03 72 1009.3
20260509001034 24 0 0.0 8.0 0.00 0.03 0.03 72 1009.2
20260509000535 24 0 0.0 8.0 0.00 0.03 0.03 72 1009.3
20260509000047 24 0 0.0 4.8 0.00 0.03 0.03 71 1009.4
20260508235532 24 0 0.0 1.6 0.00 0.03 0.03 71 1009.4
20260508235035 24 0 0.0 1.6 0.00 0.03 0.03 70 1009.5
20260508234545 25 140 0.0 3.2 0.00 0.03 0.03 70 1009.6
20260508234035 25 0 0.0 3.2 0.00 0.03 0.03 70 1009.6
20260508233536 25 0 0.0 0.0 0.00 0.03 0.03 70 1009.7
20260508233104 25 0 0.0 1.6 0.00 0.03 0.03 69 1009.8
20260508232534 25 0 0.0 1.6 0.00 0.03 0.03 69 1009.8
20260508232034 25 0 0.0 1.6 0.00 0.03 0.03 68 1009.8
20260508231553 25 0 0.0 0.0 0.00 0.03 0.03 68 1009.7
20260508231036 25 0 0.0 0.0 0.00 0.03 0.03 67 1009.6
20260508230534 25 0 0.0 1.6 0.00 0.03 0.03 67 1009.6
20260508230053 25 0 0.0 1.6 0.00 0.03 0.03 67 1009.7
20260508225534 25 0 0.0 1.6 0.00 0.03 0.03 67 1009.6
20260508225035 26 0 0.0 0.0 0.00 0.03 0.03 66 1009.6
20260508224553 26 0 0.0 0.0 0.00 0.03 0.03 67 1009.6
20260508224035 26 0 0.0 0.0 0.00 0.03 0.03 66 1009.8
20260508223535 26 0 0.0 0.0 0.00 0.03 0.03 66 1009.8
20260508223046 26 0 0.0 0.0 0.00 0.03 0.03 65 1009.8
20260508222534 26 0 0.0 0.0 0.00 0.03 0.03 64 1009.8
20260508222034 26 0 0.0 0.0 0.00 0.03 0.03 65 1009.7
20260508221545 26 0 0.0 0.0 0.00 0.03 0.03 64 1009.8
20260508221036 26 0 0.0 0.0 0.00 0.03 0.03 65 1009.8
20260508220537 26 0 0.0 0.0 0.00 0.03 0.03 65 1009.8
20260508220052 26 0 0.0 0.0 0.00 0.03 0.03 65 1009.8
20260508215534 26 0 0.0 0.0 0.00 0.03 0.03 64 1009.8
20260508215032 26 0 0.0 0.0 0.00 0.03 0.03 65 1009.8
20260508214547 26 0 0.0 0.0 0.00 0.03 0.03 64 1009.8
20260508214036 26 0 0.0 0.0 0.00 0.03 0.03 66 1009.9
20260508213534 26 0 0.0 1.6 0.00 0.03 0.03 64 1009.9
20260508213051 26 0 0.0 1.6 0.00 0.03 0.03 64 1009.9
20260508212535 26 0 0.0 1.6 0.00 0.03 0.03 65 1010.1
20260508212034 26 0 0.0 1.6 0.00 0.03 0.03 64 1010.1
20260508211545 26 0 0.0 1.6 0.00 0.03 0.03 64 1010.1
20260508211035 26 0 0.0 3.2 0.00 0.03 0.03 65 1010.1
20260508210535 26 0 0.0 3.2 0.00 0.03 0.03 64 1010.0
20260508210046 26 0 0.0 3.2 0.00 0.03 0.03 65 1010.1
20260508205534 25 0 0.0 3.2 0.00 0.03 0.03 66 1010.1
20260508205034 25 0 0.0 3.2 0.00 0.03 0.03 66 1010.3
20260508204554 25 0 0.0 3.2 0.00 0.03 0.03 66 1010.5
20260508204034 25 0 0.0 3.2 0.00 0.03 0.03 67 1010.6
20260508203534 25 0 0.0 1.6 0.00 0.03 0.03 68 1011.1
20260508203051 25 0 0.0 1.6 0.00 0.03 0.03 68 1011.4
20260508202536 25 0 0.0 3.2 0.00 0.03 0.03 69 1011.7
20260508202035 25 0 0.0 3.2 0.00 0.03 0.03 69 1011.7
20260508201547 25 0 0.0 4.8 0.00 0.03 0.03 67 1011.8
20260508201035 25 0 0.0 4.8 0.00 0.03 0.03 66 1011.9
20260508200535 25 0 0.0 4.8 0.00 0.03 0.03 66 1011.9
20260508200046 25 0 0.0 4.8 0.00 0.03 0.03 65 1011.8
20260508195534 26 0 0.0 4.8 0.00 0.03 0.03 66 1011.9
20260508195034 26 0 0.0 9.7 0.00 0.03 0.03 65 1011.9
20260508194600 26 0 0.0 9.7 0.00 0.03 0.03 65 1011.9
20260508194034 26 0 0.0 4.8 0.00 0.03 0.03 65 1012.0
20260508193534 25 0 0.0 4.8 0.00 0.03 0.03 67 1011.9
20260508193056 25 0 0.0 4.8 0.00 0.03 0.03 66 1011.9
20260508192532 26 0 0.0 8.0 0.00 0.03 0.03 65 1011.9
20260508192031 26 0 0.0 8.0 0.00 0.03 0.03 65 1012.0
20260508191550 26 0 0.0 1.6 0.00 0.03 0.03 67 1012.0
20260508191035 26 0 0.0 1.6 0.00 0.03 0.03 65 1012.1
20260508190532 26 0 0.0 1.6 0.00 0.03 0.03 64 1012.1
20260508190107 26 0 0.0 3.2 0.00 0.03 0.03 64 1012.2
20260508185535 26 0 0.0 3.2 0.00 0.03 0.03 65 1012.2
20260508185034 26 0 0.0 1.6 0.00 0.03 0.03 66 1012.3
20260508184555 26 0 0.0 8.0 0.00 0.03 0.03 64 1012.3
20260508184034 25 0 0.0 8.0 0.00 0.03 0.03 65 1012.2
20260508183534 26 0 0.0 1.6 0.00 0.03 0.03 65 1012.4
20260508183045 25 0 0.0 1.6 0.00 0.03 0.03 65 1012.5
20260508182535 26 0 0.0 3.2 0.00 0.03 0.03 65 1012.4
20260508182034 25 0 0.0 3.2 0.00 0.03 0.03 65 1012.7
20260508181558 25 0 0.0 1.6 0.00 0.03 0.03 66 1012.9
20260508181034 25 0 0.0 1.6 0.00 0.03 0.03 66 1013.0
20260508180536 26 0 0.0 1.6 0.00 0.03 0.03 66 1013.0
20260508180046 25 0 0.0 3.2 0.00 0.03 0.03 68 1013.2
20260508175534 25 0 0.0 3.2 0.00 0.03 0.03 64 1013.2
20260508175035 25 0 0.0 3.2 0.00 0.03 0.03 67 1013.4
20260508174548 25 0 0.0 4.8 0.00 0.03 0.03 67 1013.5
20260508174035 24 0 0.0 4.8 0.00 0.03 0.03 68 1013.6
20260508173534 24 0 0.0 1.6 0.00 0.03 0.03 69 1013.7
20260508173048 23 0 0.0 1.6 0.00 0.03 0.03 68 1013.6
20260508172535 23 0 0.0 1.6 0.00 0.03 0.03 68 1013.5
20260508172035 23 0 0.0 1.6 0.00 0.03 0.03 68 1013.6
20260508171549 23 0 0.0 1.6 0.00 0.03 0.03 68 1013.7
20260508171034 23 95 0.0 1.6 0.00 0.03 0.03 68 1013.8
20260508170534 23 0 0.0 3.2 0.00 0.03 0.03 69 1013.9
20260508170044 23 0 0.0 3.2 0.00 0.03 0.03 67 1014.0
20260508165535 23 0 0.0 3.2 0.00 0.03 0.03 69 1014.0
20260508165035 23 0 0.0 0.0 0.00 0.03 0.03 72 1014.2
20260508164548 22 0 0.0 1.6 0.00 0.03 0.03 70 1014.3
20260508164035 22 0 0.0 3.2 0.00 0.03 0.03 73 1014.4
20260508163538 22 0 0.0 3.2 0.00 0.03 0.03 73 1014.5
20260508163103 21 0 0.0 3.2 0.00 0.03 0.03 75 1014.7
20260508162535 21 0 0.0 3.2 0.00 0.03 0.03 76 1014.7
20260508162035 20 0 0.0 0.0 0.00 0.03 0.03 79 1014.8
20260508161554 20 0 0.0 1.6 0.00 0.03 0.03 81 1014.9
20260508161035 20 0 0.0 1.6 0.00 0.03 0.03 82 1015.0
20260508160534 19 0 0.0 3.2 0.00 0.03 0.03 82 1015.0
20260508160051 19 0 0.0 3.2 0.00 0.03 0.03 83 1015.1
20260508155534 19 0 0.0 3.2 0.00 0.03 0.03 84 1015.2
20260508155032 19 0 0.0 4.8 0.00 0.03 0.03 85 1015.2
20260508154547 18 0 0.0 4.8 0.00 0.03 0.03 84 1015.3
20260508154034 19 0 0.0 0.0 0.00 0.03 0.03 85 1015.4
20260508153531 18 0 0.0 0.0 0.00 0.03 0.03 86 1015.4
20260508153101 18 0 0.0 1.6 0.00 0.03 0.03 86 1015.5
20260508152535 18 0 0.0 1.6 0.00 0.03 0.03 85 1015.5
20260508152035 18 0 0.0 1.6 0.00 0.03 0.03 85 1015.4
20260508151548 18 0 0.0 0.0 0.00 0.03 0.03 84 1015.5
20260508151038 18 0 0.0 1.6 0.00 0.03 0.03 83 1015.5
20260508150534 18 0 0.0 1.6 0.00 0.03 0.03 81 1015.4
20260508150046 18 0 0.0 1.6 0.00 0.03 0.03 80 1015.5
20260508145536 18 0 0.0 1.6 0.00 0.03 0.03 80 1016.0
20260508145034 19 0 0.0 0.0 0.00 0.03 0.03 79 1015.7
20260508144550 19 0 0.0 0.0 0.00 0.03 0.03 79 1015.6
20260508144035 19 0 0.0 0.0 0.00 0.03 0.03 81 1015.6
20260508143535 18 0 0.0 0.0 0.00 0.03 0.03 83 1015.6
20260508143103 18 0 0.0 0.0 0.00 0.03 0.03 85 1015.7
20260508142534 18 0 0.0 0.0 0.00 0.03 0.03 85 1015.6
20260508142031 17 0 0.0 0.0 0.00 0.03 0.03 86 1015.9
20260508141556 17 0 0.0 0.0 0.00 0.03 0.03 87 1015.9
20260508141035 17 0 0.0 0.0 0.00 0.03 0.03 88 1016.1
20260508140534 17 0 0.0 0.0 0.00 0.03 0.03 88 1016.2
20260508140046 17 0 0.0 0.0 0.00 0.03 0.03 89 1016.0